Weather Roundup
Issued by NWS

Home | Current Version | Previous Version | Graphics & Text | Print | Product List | Glossary Off
Versions: 1 2 3 4 5 6 7 8 9 10 11 12 13 14 15 16 17 18 19 20 21 22 23 24 25 26 27 28 29 30 31 32 33 34 35 36 37 38 39 40 41 42 43 44 45 46 47 48 49 50

000
NZUS93 KARX 250010
HRRWXR

CURRENT HOURLY OBSERVATIONS ACROSS
MUCH OF THE UPPER MISSISSIPPI VALLEY
NATIONAL WEATHER SERVICE LA CROSSE WI
700 PM CDT SUN MAY 24 2015


...SOUTHEAST MINNESOTA...


CITY           SKY/WX    TMP DP  RH WIND       PRES   REMARKS
ROCHESTER      LGT RAIN  59  57  93 E12       29.86F FOG
ROCHESTER/MAYO CLOUDY    58  58 100 E9        29.85F
WINONA         RAIN      59  57  94 SE8       29.88F
AUSTIN         DRIZZLE   61  57  88 E12       29.82F
ALBERT LEA     DRIZZLE   61  61 100 SE7       29.81F
DODGE CENTER   DRIZZLE   59  57  94 E9        29.84F
PRESTON        CLOUDY    58  57  96 SE6       29.86F FOG
OWATONNA       DRIZZLE   59  57  94 E8        29.83F
FARIBAULT      DRIZZLE   59  57  94 NE7       29.85F
$$

...ELSEWHERE IN MINNESOTA...


CITY           SKY/WX    TMP DP  RH WIND       PRES   REMARKS
MINNEAPOLIS    LGT RAIN  60  58  92 E12       29.86F FOG
INTNL FALLS    CLOUDY    74  43  32 NE3       29.92F
DULUTH         CLOUDY    66  46  48 S6        29.95F
RED WING       RAIN      59  57  94 E10       29.86F
REDWOOD FALLS  RAIN      60  58  92 E12G20    29.82F FOG
MANKATO        CLOUDY    59  57  94 E12       29.82F
WORTHINGTON    CLOUDY    59  57  94 NE8       29.80F
FAIRMONT       CLOUDY    61  55  82 E8        29.79F
$$

...SOUTHWEST WISCONSIN...


CITY           SKY/WX    TMP DP  RH WIND       PRES   REMARKS
LA CROSSE      LGT RAIN  61  57  87 SE7       29.88F
PRAIRIE DU CHI DRIZZLE   63  59  87 CALM      29.86F
BOSCOBEL       CLOUDY    62  58  86 NE5       29.88F
LONE ROCK      CLOUDY    61  57  87 E15       29.91F
PLATTEVILLE    CLOUDY    63  61  95 E14       29.88F
FORT MC COY    CLOUDY    58  56  92 SE9       29.92S
CAMP DOUGLAS   CLOUDY    57  57 100 E12       29.92F
VIROQUA        CLOUDY    58  58 100 E14G20    29.89F
WIS DELLS      CLOUDY    57  54  91 E10G17    29.94F
$$

...ELSEWHERE IN WISCONSIN...


CITY           SKY/WX    TMP DP  RH WIND       PRES   REMARKS
MILWAUKEE      CLOUDY    53  49  86 E7        29.98F FOG
MADISON        LGT RAIN  58  54  86 SE9G18    29.92F FOG
GREEN BAY      HVY RAIN  57  55  93 SE12      30.02F FOG
EAU CLAIRE     RAIN      58  56  93 E10       29.91F FOG
BLACK RVR FLS  RAIN      58  58 100 SE5       29.91F
MEDFORD        RAIN      56  55  97 E8        29.96F
WAUSAU         RAIN      57  55  93 SE13      29.97F FOG
WIS RAPIDS     LGT RAIN  57  54  89 SE13      29.97F
MARSHFIELD     LGT RAIN  58  55  90 SE13G21   29.95F FOG
RICE LAKE      RAIN      58  56  91 E8        29.95F
$$

...NORTHEAST IOWA...


CITY           SKY/WX    TMP DP  RH WIND       PRES   REMARKS
DECORAH        CLOUDY    61  61 100 SE10G17   29.85F FOG
MASON CITY     CLOUDY    63  62  97 SE9       29.82F FOG
CHARLES CITY   CLOUDY    64  64 100 SE13      29.83F FOG
OELWEIN        CLOUDY    64  64 100 E14       29.84S FOG
$$

...ELSEWHERE IN IOWA...


CITY           SKY/WX    TMP DP  RH WIND       PRES   REMARKS
DES MOINES     LGT RAIN  71  63  75 S8        29.79F
IOWA CITY      LGT RAIN  69  66  90 S9        29.85S FOG
FORT DODGE     CLOUDY    64  61  88 S6        29.79F
$$

...NORTHERN ILLINOIS...


CITY           SKY/WX    TMP DP  RH WIND       PRES   REMARKS
CHICAGO-OHARE  PTSUNNY   65  61  87 E9        29.93F
CHICAGO-MIDWAY PTSUNNY   68  65  90 E6        29.93F
MOLINE         PTSUNNY   72  67  84 S8        29.83F
ROCKFORD       TSTM      66  61  84 SE5       29.92S
PEORIA         LGT RAIN  81  63  54 S13G26    29.87S
$$

NOTE: "FAIR" INDICATES FEW OR NO CLOUDS BELOW 12,000 FEET WITH NO
SIGNIFICANT WEATHER AND/OR OBSTRUCTIONS TO VISIBILITY. WIND
SPEEDS ARE IN MILES-PER-HOUR.



USA.gov is the U.S. government's official web portal to all federal, state and local government web resources and services.